Wind_Speed
8 8 8 7 7 7 7 7 7 8 9 9 10 10 11 12 13 13 14 15 16 17 17 18 19 19 19 19 19 21 22 22 23 24 25 26 26 26 27 28 29 29 29
9 8 8 8 7 7 7 7 8 8 9 10 11 12 12 12 13 14 15 16 16 17 18 18 19 19 20 20 21 22 23 24 25 26 26 27 27 28 29 29 30 30 31
9 8 8 9 8 7 7 7 8 9 9 10 11 11 12 13 14 15 15 16 17 17 18 19 20 20 21 22 23 23 24 25 26 27 28 28 29 29 30 31 31 31 32
10 9 9 9 9 8 7 8 8 9 10 11 11 11 12 13 14 16 16 17 18 18 19 19 20 21 22 22 24 25 26 27 27 28 29 29 30 30 31 32 32 33 33
10 10 10 10 10 9 8 8 9 10 11 11 11 12 13 14 15 16 17 18 18 19 20 20 21 22 23 24 25 26 27 27 27 28 29 30 31 31 32 32 33 34 34
11 11 11 10 10 10 10 10 11 11 12 12 12 14 15 17 17 18 18 19 20 21 21 22 23 24 25 26 26 27 27 27 29 29 30 31 31 32 33 33 34 35 35
13 12 12 12 11 11 12 12 12 13 13 13 14 16 17 18 19 20 21 22 22 22 23 24 25 25 26 26 26 27 28 29 29 30 30 31 32 32 33 34 34 35 36
14 14 14 14 14 14 14 14 14 14 14 15 16 17 18 19 20 21 22 22 23 23 24 25 25 25 26 26 27 28 29 29 30 30 31 32 33 34 34 35 35 36 36
16 16 16 17 16 16 16 16 16 16 16 17 17 18 19 21 22 22 22 22 23 24 24 25 26 27 27 27 28 29 30 31 31 32 32 33 34 34 34 35 35 36 37
17 17 18 17 17 17 18 18 18 19 19 19 20 20 21 22 23 23 23 23 24 24 25 26 27 28 28 29 30 31 31 31 32 33 33 34 35 35 35 35 36 36 37
19 18 19 19 19 19 19 20 20 21 21 22 23 23 23 23 24 24 24 25 26 26 27 28 28 28 29 29 30 31 32 33 33 34 35 35 35 35 35 36 36 36 36
21 20 20 20 21 20 21 22 23 23 24 24 24 24 24 25 25 25 26 26 27 28 29 29 29 29 30 30 31 32 32 33 34 35 35 35 35 35 35 35 35 35 35
22 21 21 22 23 23 23 24 23 24 24 24 24 25 25 26 26 27 27 28 29 29 30 30 30 30 31 31 32 33 33 34 34 34 35 35 34 35 35 35 35 35 34
22 22 22 23 24 24 24 25 25 26 26 25 26 27 27 27 28 28 29 30 30 31 31 31 31 31 32 33 33 33 33 33 34 34 34 34 34 34 34 34 34 34 33
23 23 24 24 25 26 26 27 27 27 27 27 28 28 28 27 28 28 29 30 31 31 32 32 32 33 33 33 34 34 34 33 33 33 33 34 34 34 33 33 33 33 33
24 25 26 26 26 27 28 28 27 28 28 29 29 28 28 28 28 29 30 31 32 32 33 33 33 34 33 33 34 34 33 33 34 33 33 33 33 33 33 32 32 32 32
27 27 27 28 28 28 29 29 29 28 28 28 28 29 29 30 30 31 31 32 33 34 34 34 33 33 33 34 34 34 33 33 34 33 33 33 33 33 32 32 32 32 31
29 29 29 29 29 29 29 29 29 28 28 28 29 30 30 31 31 31 32 33 34 34 34 34 34 34 34 34 34 33 33 33 33 33 33 33 33 33 33 32 31 31 31
30 30 30 30 30 29 29 29 29 29 29 29 30 30 31 32 32 32 33 33 34 34 34 34 34 34 34 34 33 33 32 33 33 33 32 32 32 32 31 30 30 29 29
31 31 30 30 29 29 29 29 29 29 30 30 30 31 31 32 32 32 32 33 34 34 34 34 34 34 34 33 33 32 32 32 32 31 31 31 31 30 29 29 29 29 29
31 30 30 30 30 30 29 29 29 30 30 30 30 31 32 32 32 32 33 33 33 32 32 32 33 33 32 32 32 31 31 31 31 31 30 29 29 29 29 29 29 29 29
30 30 29 30 29 29 29 30 31 30 30 30 30 30 31 31 31 31 31 31 31 31 31 31 32 32 31 31 30 30 31 32 32 31 30 29 29 29 29 29 29 29 29
29 29 28 29 29 29 30 31 30 30 30 30 30 30 30 30 29 30 30 30 30 30 31 31 32 31 31 31 31 31 30 30 30 30 29 29 29 29 29 29 29 29 29
28 28 28 28 29 29 29 30 29 28 28 29 29 29 29 29 29 30 30 30 30 31 31 31 31 30 29 29 29 29 30 29 29 29 29 29 30 29 30 30 29 29 29
27 27 27 27 28 28 28 28 27 27 28 28 28 28 29 28 29 30 31 30 30 29 29 29 29 28 28 29 29 29 29 29 28 29 29 30 30 30 30 30 30 30 31
26 27 26 27 27 27 27 27 27 27 27 27 27 28 28 29 29 30 30 30 29 29 29 29 29 28 28 28 28 29 29 29 29 30 30 31 31 31 31 31 31 32 32
Wind_Direction
329 329 329 323 311 302 290 283 279 270 265 266 265 267 268 269 270 272 275 278 280 282 280 280 282 282 283 282 281 280 279 279 282 284 284 283 285 286 287 286 288 288 289
331 329 327 326 315 300 288 283 282 276 273 273 272 271 272 273 276 276 276 280 282 281 280 280 282 282 282 282 281 282 281 281 282 283 284 282 283 284 286 288 287 287 288
324 323 323 324 320 300 288 286 283 280 278 277 278 276 275 279 280 280 281 282 284 283 282 283 282 282 282 282 283 282 283 284 283 283 284 282 282 285 286 287 287 287 288
319 318 319 321 324 309 289 285 282 283 281 280 281 281 283 285 284 284 285 286 286 285 284 285 285 285 284 283 285 284 285 286 285 284 285 284 285 286 287 287 288 287 288
314 312 312 314 318 316 299 291 289 289 287 286 285 285 286 290 292 291 290 290 289 288 287 286 286 285 285 285 287 287 287 287 288 288 287 286 287 288 288 289 289 289 289
306 305 306 308 306 310 311 305 298 295 294 291 289 290 291 290 291 291 293 293 290 289 288 288 287 287 286 287 287 287 288 289 290 290 289 288 288 289 289 289 290 290 290
302 301 301 302 303 303 302 305 306 304 300 295 292 293 293 292 290 290 290 292 292 290 288 289 288 289 290 289 288 288 290 291 291 291 290 290 290 290 290 291 291 290 290
298 296 295 295 296 296 297 299 301 303 302 299 297 296 296 295 294 295 294 294 293 290 290 291 291 291 291 290 289 290 291 292 291 291 291 292 291 291 292 292 292 292 291
293 292 293 292 290 291 292 295 297 299 302 302 300 299 299 299 298 297 295 296 295 293 293 292 293 293 292 291 291 292 292 292 292 292 292 293 292 292 292 293 293 292 292
292 291 293 294 292 291 290 292 294 296 298 300 299 298 298 298 298 299 298 298 296 295 294 294 296 295 292 291 293 293 293 293 293 292 293 294 293 292 292 293 293 292 293
290 290 290 290 290 290 291 291 292 294 295 296 296 296 296 296 297 297 297 296 296 294 295 297 298 297 294 293 294 294 294 294 294 294 294 294 294 294 294 294 294 294 294
289 287 289 290 290 290 292 291 290 290 290 292 294 295 295 295 295 296 295 295 295 295 296 297 298 296 295 294 294 295 295 295 296 296 296 296 296 296 296 297 297 296 296
291 288 289 290 290 291 291 293 292 292 291 292 295 296 296 295 295 295 295 294 295 295 295 295 296 296 296 296 297 297 296 295 296 298 297 297 298 297 297 297 297 297 297
289 290 292 293 291 290 289 291 292 292 292 292 295 297 296 295 295 295 295 295 295 295 295 296 297 296 296 297 297 298 297 297 297 298 299 299 299 299 299 298 298 299 298
289 290 291 292 292 291 291 291 291 291 291 293 295 296 296 295 295 296 297 297 297 297 296 296 297 297 296 296 297 298 299 299 299 299 299 300 301 301 301 300 300 300 300
289 290 291 290 290 291 291 291 291 292 292 292 293 294 295 294 294 295 296 296 296 297 297 297 297 297 297 297 298 298 299 300 300 300 301 301 301 301 301 301 302 302 301
290 291 292 291 291 291 291 290 291 291 292 293 292 293 293 293 293 294 294 294 294 295 296 297 298 298 298 298 299 299 299 300 300 301 301 301 301 301 302 302 302 302 301
289 290 290 292 292 292 291 291 291 291 292 292 292 292 291 292 293 292 293 293 294 294 296 297 298 298 299 299 299 299 299 299 300 301 301 301 301 302 302 302 302 301 301
290 290 291 292 292 291 292 293 292 291 291 291 292 292 292 293 292 293 293 294 294 295 297 297 298 298 300 300 299 299 299 299 300 301 301 301 302 303 303 303 303 302 301
289 290 290 290 291 292 293 292 291 291 292 292 292 292 294 293 293 293 294 294 296 297 298 299 299 299 300 300 300 299 299 300 300 300 300 301 302 303 304 304 303 302 301
288 289 288 289 290 291 292 291 290 290 291 291 291 291 292 292 293 294 295 297 298 299 299 300 300 300 299 301 301 300 300 300 301 302 301 302 303 304 304 304 303 303 302
288 288 288 289 289 290 290 291 292 291 291 292 291 292 293 294 295 297 298 298 299 299 300 301 302 301 299 299 300 300 300 300 301 301 301 302 303 303 302 302 303 302 302
288 289 287 287 288 288 289 290 290 291 291 291 292 294 295 296 297 299 299 300 300 300 301 302 302 301 300 299 299 300 301 302 302 302 302 302 302 301 301 302 302 301 301
287 286 286 286 287 288 289 291 291 291 291 292 294 296 298 298 299 300 301 301 300 301 302 302 301 301 300 301 301 302 302 302 302 302 302 303 303 302 302 302 301 301 300
286 286 287 288 287 288 289 291 292 292 293 294 296 297 299 299 299 299 300 302 301 302 304 304 303 301 301 303 303 302 302 302 302 303 303 303 303 302 302 301 301 301 300
286 286 287 287 288 289 290 292 293 294 295 296 296 297 298 299 300 300 301 302 302 303 304 304 304 302 302 302 303 303 303 303 303 304 304 303 303 302 301 301 301 300 299
Height
5886 5885 5883 5882 5881 5880 5880 5879 5879 5879 5879 5879 5879 5878 5879 5879 5878 5878 5878 5877 5876 5876 5875 5874 5873 5872 5871 5870 5869 5868 5867 5866 5865 5863 5862 5860 5858 5856 5855 5853 5851 5849 5847
5885 5884 5883 5881 5880 5879 5878 5878 5877 5877 5877 5877 5876 5876 5876 5876 5875 5874 5874 5873 5872 5872 5871 5869 5868 5867 5866 5865 5864 5862 5861 5860 5859 5857 5855 5854 5852 5850 5848 5846 5843 5841 5839
5884 5883 5882 5880 5878 5877 5876 5876 5876 5875 5875 5874 5874 5873 5873 5872 5872 5871 5870 5869 5868 5867 5866 5865 5863 5862 5861 5860 5858 5857 5855 5854 5852 5851 5849 5847 5845 5843 5841 5838 5836 5834 5832
5883 5882 5880 5878 5877 5875 5874 5874 5873 5873 5872 5872 5871 5870 5870 5869 5868 5867 5866 5865 5863 5862 5861 5860 5858 5857 5855 5854 5853 5851 5849 5847 5845 5843 5842 5840 5838 5835 5833 5831 5828 5826 5823
5881 5880 5878 5877 5875 5874 5872 5872 5871 5870 5870 5869 5868 5867 5866 5865 5864 5863 5861 5860 5859 5857 5856 5855 5853 5851 5850 5848 5846 5844 5842 5840 5838 5836 5834 5832 5830 5827 5825 5822 5820 5817 5815
5879 5877 5876 5875 5873 5872 5871 5870 5869 5868 5867 5866 5865 5864 5862 5861 5860 5858 5857 5855 5854 5852 5851 5849 5847 5845 5844 5842 5840 5838 5836 5834 5831 5829 5827 5824 5822 5819 5816 5814 5811 5809 5806
5876 5874 5873 5872 5871 5870 5869 5867 5866 5865 5863 5862 5861 5860 5858 5857 5855 5854 5852 5850 5848 5846 5845 5843 5841 5839 5837 5835 5833 5831 5829 5826 5824 5822 5819 5816 5814 5811 5808 5805 5802 5799 5797
5872 5871 5870 5869 5868 5867 5866 5864 5863 5861 5860 5858 5857 5855 5854 5852 5850 5848 5846 5844 5842 5840 5838 5836 5835 5833 5831 5828 5826 5824 5822 5819 5816 5814 5811 5808 5805 5802 5800 5797 5793 5790 5787
5868 5867 5866 5864 5863 5862 5861 5860 5859 5857 5856 5854 5852 5851 5849 5847 5845 5843 5841 5839 5837 5835 5832 5831 5829 5826 5824 5822 5819 5817 5814 5811 5808 5806 5803 5800 5797 5794 5791 5788 5784 5781 5778
5863 5863 5861 5860 5859 5858 5857 5855 5854 5853 5851 5849 5847 5846 5844 5842 5840 5838 5836 5833 5831 5829 5826 5824 5822 5819 5817 5814 5812 5809 5806 5803 5800 5797 5794 5791 5788 5785 5781 5778 5775 5772 5768
5858 5858 5856 5855 5854 5853 5851 5850 5849 5847 5846 5844 5842 5840 5838 5836 5834 5832 5830 5827 5825 5822 5820 5817 5815 5812 5809 5807 5804 5801 5798 5795 5792 5789 5786 5782 5779 5775 5772 5769 5766 5762 5759
5853 5852 5851 5849 5848 5847 5846 5844 5843 5841 5840 5838 5836 5834 5832 5830 5828 5826 5823 5821 5818 5816 5813 5810 5807 5805 5802 5799 5796 5793 5790 5786 5783 5780 5777 5773 5770 5767 5763 5760 5756 5753 5749
5847 5846 5845 5844 5842 5841 5840 5838 5837 5835 5833 5831 5829 5827 5825 5823 5821 5819 5816 5814 5811 5809 5806 5803 5800 5797 5794 5791 5788 5785 5782 5778 5775 5772 5768 5765 5761 5758 5754 5750 5747 5743 5740
5841 5839 5838 5837 5835 5834 5833 5831 5830 5828 5826 5824 5822 5820 5818 5816 5814 5811 5809 5806 5804 5801 5798 5795 5792 5789 5786 5783 5780 5777 5773 5770 5766 5763 5759 5756 5752 5749 5745 5741 5738 5734 5731
5835 5834 5832 5831 5829 5828 5826 5825 5823 5821 5819 5817 5815 5813 5811 5808 5806 5804 5801 5799 5796 5793 5790 5787 5784 5781 5778 5775 5771 5768 5764 5761 5757 5754 5750 5747 5743 5740 5736 5732 5729 5725 5722
5828 5827 5825 5823 5822 5821 5819 5817 5815 5814 5812 5809 5807 5805 5803 5801 5798 5796 5794 5791 5788 5785 5782 5778 5775 5772 5769 5766 5762 5759 5755 5752 5748 5745 5742 5738 5735 5731 5727 5724 5720 5716 5713
5821 5820 5818 5816 5815 5813 5811 5809 5807 5806 5804 5802 5799 5797 5795 5793 5790 5788 5785 5782 5779 5776 5773 5770 5766 5763 5760 5757 5753 5750 5746 5743 5740 5736 5733 5729 5726 5722 5719 5715 5711 5707 5704
5814 5812 5810 5808 5806 5804 5803 5801 5799 5797 5796 5793 5791 5789 5787 5784 5782 5779 5777 5774 5771 5767 5764 5761 5758 5754 5751 5747 5744 5741 5737 5734 5731 5727 5724 5720 5717 5713 5710 5706 5702 5699 5695
5805 5803 5802 5799 5797 5795 5794 5792 5791 5789 5787 5784 5782 5780 5778 5775 5773 5770 5767 5765 5761 5758 5755 5752 5748 5745 5742 5738 5735 5731 5728 5725 5721 5718 5715 5711 5708 5704 5701 5697 5694 5691 5687
5796 5794 5793 5790 5789 5787 5786 5784 5782 5780 5778 5775 5773 5771 5768 5766 5763 5761 5758 5755 5752 5749 5745 5742 5739 5735 5732 5729 5726 5722 5719 5716 5712 5709 5706 5703 5699 5696 5692 5689 5686 5683 5679
5787 5785 5784 5782 5780 5778 5777 5775 5773 5771 5768 5766 5764 5762 5759 5756 5754 5751 5748 5745 5742 5739 5736 5733 5730 5726 5723 5720 5717 5714 5710 5707 5704 5701 5698 5694 5691 5688 5684 5681 5678 5675 5671
5778 5776 5775 5773 5771 5769 5767 5766 5764 5761 5759 5757 5755 5753 5750 5747 5745 5742 5739 5736 5733 5730 5727 5724 5721 5718 5714 5711 5708 5705 5702 5699 5695 5692 5689 5686 5682 5679 5676 5673 5670 5667 5664
5769 5767 5765 5764 5762 5760 5758 5756 5754 5752 5750 5748 5746 5744 5741 5739 5736 5733 5730 5727 5724 5721 5718 5715 5712 5709 5706 5702 5699 5696 5693 5690 5687 5684 5680 5677 5674 5671 5668 5665 5661 5658 5655
5760 5758 5757 5755 5753 5752 5750 5748 5746 5744 5742 5740 5738 5735 5733 5730 5727 5725 5722 5719 5715 5712 5709 5706 5703 5700 5697 5694 5691 5688 5684 5681 5678 5675 5672 5669 5666 5662 5659 5656 5653 5650 5647
5751 5750 5748 5747 5745 5743 5742 5740 5738 5736 5734 5732 5730 5727 5725 5722 5719 5716 5713 5710 5707 5704 5700 5697 5694 5691 5688 5685 5682 5679 5676 5673 5670 5667 5664 5661 5657 5654 5651 5647 5644 5641 5638
5743 5741 5740 5738 5737 5735 5733 5732 5730 5728 5726 5724 5722 5719 5716 5714 5711 5708 5705 5702 5699 5695 5692 5689 5686 5683 5680 5677 5674 5671 5668 5664 5661 5658 5655 5652 5648 5645 5642 5638 5635 5632 5629